Location: Bittelbronn
(48.4454°N, 8.5870°E)
Time: 13:26:02
(UTC+00:00)

Envisat - Visible Passes

Search period start: 20 July 2024 00:00
Search period end: 30 July 2024 00:00
Orbit: 762 x 764 km, 98.3° (Epoch: 20 July)

Date Brightness Start Highest point End Pass type
(mag) Time Alt. Az. Time Alt. Az. Time Alt. Az.
20 Jul 4.9 01:44:29 10° NE 01:48:34 24° E 01:52:38 10° SE visible
21 Jul 5.6 01:09:10 10° ENE 01:10:41 11° E 01:12:13 10° ESE visible
21 Jul 3.1 02:45:23 10° NNE 02:50:30 79° ESE 02:55:34 10° S visible
22 Jul 4.2 02:08:14 10° NNE 02:12:58 38° E 02:17:39 10° SSE visible
23 Jul 5.2 01:31:42 10° NE 01:35:14 19° E 01:38:45 10° SE visible
23 Jul 3.1 03:09:37 10° N 03:14:40 66° WNW 03:19:41 10° SSW visible
24 Jul 3.5 02:32:14 10° NNE 02:37:16 61° E 02:42:17 10° S visible
25 Jul 4.6 01:55:14 10° NNE 01:59:40 30° E 02:04:05 10° SSE visible
26 Jul 5.4 01:19:07 10° NE 01:21:51 14° E 01:24:34 10° ESE visible
26 Jul 3.0 02:56:23 10° NNE 03:01:29 84° WNW 03:06:33 10° SSW visible
27 Jul 3.9 02:19:06 10° NNE 02:24:02 47° E 02:28:54 10° S visible
28 Jul 5.0 01:42:19 10° NE 01:46:21 23° E 01:50:21 10° SE visible
29 Jul 5.7 01:07:11 10° ENE 01:08:27 11° E 01:09:42 10° E visible
29 Jul 3.2 02:43:10 10° NNE 02:48:17 77° ESE 02:53:21 10° S visible
